Temp
-6 -6 -6 -6 -6 -7 -7 -7 -6 -7 -6 -7 -8 -8 -8 -8 -8 -8 -8 -8 -8 -7 -7 -7 -8 -8 -7 -7 -7 -7 -7 -8 -8 -8 -8 -8 -7 -7 -8 -8 -8 -8 -8 -8 -8 -8 -8 -7 -8
-7 -7 -7 -7 -6 -7 -7 -7 -6 -6 -6 -6 -8 -9 -8 -7 -8 -8 -8 -8 -7 -7 -7 -8 -8 -8 -8 -8 -7 -7 -7 -8 -8 -8 -8 -8 -8 -8 -8 -8 -8 -8 -9 -9 -9 -9 -9 -9 -8
-7 -7 -6 -7 -6 -7 -8 -8 -7 -7 -7 -7 -6 -8 -8 -7 -7 -7 -8 -7 -7 -7 -7 -7 -8 -8 -8 -8 -8 -8 -8 -8 -8 -8 -8 -8 -8 -8 -8 -8 -8 -8 -9 -9 -10 -10 -10 -10 -10
-7 -7 -7 -7 -7 -8 -8 -8 -7 -8 -9 -9 -8 -8 -8 -8 -7 -7 -8 -8 -7 -7 -7 -8 -8 -9 -8 -8 -8 -8 -8 -8 -9 -8 -8 -8 -8 -8 -8 -8 -9 -9 -9 -10 -10 -10 -10 -10 -10
-7 -7 -7 -7 -7 -7 -8 -8 -9 -8 -9 -8 -8 -8 -7 -8 -8 -9 -8 -8 -8 -8 -8 -8 -8 -9 -8 -8 -8 -8 -8 -9 -9 -9 -9 -9 -9 -9 -9 -9 -9 -10 -10 -10 -10 -10 -11 -10 -11
-7 -7 -7 -7 -7 -8 -9 -8 -8 -8 -8 -7 -8 -8 -9 -9 -9 -9 -9 -8 -8 -8 -8 -8 -8 -8 -8 -8 -9 -10 -9 -9 -9 -9 -9 -10 -10 -9 -10 -10 -11 -10 -10 -10 -10 -10 -10 -11 -11
-8 -8 -8 -8 -8 -7 -9 -10 -9 -9 -8 -9 -9 -9 -8 -9 -9 -8 -9 -8 -7 -7 -7 -8 -8 -8 -8 -8 -8 -9 -10 -9 -10 -10 -10 -10 -10 -10 -10 -11 -11 -11 -11 -11 -10 -10 -10 -11 -11
-9 -8 -8 -8 -8 -8 -11 -9 -10 -9 -10 -10 -10 -9 -10 -10 -9 -9 -9 -8 -7 -7 -7 -8 -8 -8 -9 -9 -8 -9 -9 -10 -10 -11 -11 -11 -11 -11 -11 -11 -12 -12 -12 -11 -11 -11 -11 -11 -11
-10 -8 -8 -8 -8 -9 -11 -8 -10 -10 -10 -10 -9 -10 -10 -9 -8 -9 -8 -8 -8 -8 -7 -9 -9 -9 -10 -10 -9 -9 -9 -10 -11 -11 -11 -11 -12 -11 -12 -12 -12 -13 -12 -12 -12 -12 -12 -11 -11
-10 -9 -9 -9 -9 -9 -11 -8 -10 -10 -10 -9 -10 -9 -10 -10 -10 -9 -9 -9 -9 -9 -8 -9 -11 -10 -11 -10 -10 -9 -10 -10 -11 -11 -11 -11 -12 -12 -12 -13 -13 -13 -13 -12 -12 -12 -12 -11 -12
-9 -8 -9 -9 -9 -10 -10 -10 -9 -10 -10 -10 -10 -9 -9 -10 -10 -10 -10 -10 -10 -9 -9 -10 -11 -10 -10 -10 -9 -10 -10 -10 -11 -11 -11 -11 -12 -13 -13 -13 -13 -13 -13 -12 -12 -12 -12 -12 -12
-11 -10 -10 -10 -10 -11 -10 -11 -10 -10 -9 -10 -10 -10 -9 -9 -9 -9 -10 -10 -10 -10 -10 -10 -10 -10 -10 -10 -10 -10 -11 -11 -11 -11 -11 -12 -12 -13 -14 -13 -14 -13 -13 -13 -12 -12 -12 -12 -12
-10 -10 -10 -10 -10 -10 -10 -10 -10 -10 -10 -10 -10 -10 -10 -10 -10 -10 -10 -10 -10 -11 -11 -10 -10 -10 -10 -10 -10 -10 -11 -11 -11 -11 -11 -12 -13 -14 -14 -14 -14 -13 -13 -13 -12 -12 -12 -12 -12
-10 -11 -10 -11 -10 -10 -10 -10 -9 -9 -10 -9 -10 -10 -10 -10 -11 -11 -11 -10 -11 -11 -11 -11 -10 -10 -10 -10 -10 -11 -10 -11 -11 -11 -12 -12 -13 -14 -14 -14 -14 -13 -13 -13 -12 -12 -12 -12 -12
-10 -11 -11 -10 -10 -10 -11 -9 -8 -8 -10 -11 -11 -10 -10 -10 -10 -10 -10 -11 -10 -10 -10 -10 -10 -10 -11 -11 -11 -10 -11 -11 -11 -11 -12 -12 -13 -14 -14 -14 -14 -13 -14 -13 -12 -12 -11 -11 -11
-11 -11 -10 -8 -10 -10 -12 -6 -8 -10 -10 -10 -11 -11 -10 -10 -9 -9 -9 -9 -9 -9 -10 -11 -11 -10 -11 -11 -11 -11 -11 -11 -11 -12 -12 -12 -13 -14 -13 -14 -13 -14 -14 -13 -12 -12 -12 -11 -11
-11 -9 -9 -8 -11 -11 -12 -6 -9 -10 -11 -10 -10 -10 -9 -9 -9 -9 -9 -9 -10 -10 -11 -11 -12 -12 -12 -11 -11 -11 -11 -11 -11 -12 -12 -12 -13 -13 -13 -13 -13 -13 -13 -13 -13 -12 -12 -12 -12
-10 -9 -9 -9 -10 -11 -11 -8 -9 -10 -10 -11 -10 -9 -9 -9 -9 -9 -9 -10 -10 -11 -11 -11 -12 -12 -12 -12 -11 -11 -11 -11 -11 -11 -11 -12 -13 -13 -13 -13 -13 -13 -13 -13 -13 -13 -13 -13 -13
-11 -10 -10 -10 -11 -11 -11 -10 -9 -10 -10 -10 -9 -9 -9 -9 -9 -9 -9 -9 -10 -10 -10 -11 -12 -11 -12 -12 -12 -12 -11 -11 -11 -11 -11 -12 -12 -13 -12 -13 -13 -13 -13 -13 -13 -13 -13 -13 -13
-11 -11 -10 -10 -11 -11 -11 -11 -9 -9 -9 -10 -9 -9 -8 -8 -8 -9 -9 -9 -10 -10 -11 -11 -10 -10 -12 -12 -12 -12 -12 -12 -11 -11 -12 -12 -13 -12 -13 -12 -13 -13 -13 -13 -13 -13 -13 -14 -14
-10 -11 -10 -11 -11 -11 -12 -10 -9 -9 -9 -9 -9 -9 -8 -9 -9 -9 -9 -9 -10 -10 -11 -10 -10 -11 -12 -12 -12 -12 -12 -12 -12 -12 -12 -12 -12 -12 -12 -13 -13 -13 -13 -13 -13 -13 -14 -14 -14
-10 -11 -11 -11 -11 -10 -12 -9 -10 -8 -8 -8 -8 -8 -8 -8 -9 -9 -9 -9 -10 -11 -11 -10 -10 -11 -11 -12 -12 -12 -12 -12 -13 -13 -12 -12 -12 -12 -12 -13 -13 -13 -13 -13 -13 -13 -13 -14 -14
-10 -11 -11 -11 -11 -11 -10 -12 -6 -8 -8 -8 -8 -8 -9 -9 -9 -9 -9 -9 -10 -10 -11 -11 -11 -11 -12 -12 -12 -11 -12 -13 -12 -12 -12 -12 -12 -12 -12 -13 -13 -12 -13 -13 -13 -13 -13 -14 -14
-11 -11 -11 -11 -11 -11 -10 -10 -6 -8 -8 -8 -8 -9 -10 -9 -9 -8 -8 -9 -10 -11 -11 -11 -11 -12 -12 -12 -11 -12 -12 -12 -12 -12 -12 -12 -12 -12 -12 -12 -12 -13 -13 -13 -13 -13 -13 -14 -14
-12 -12 -12 -11 -11 -9 -10 -10 -6 -8 -8 -9 -9 -9 -9 -8 -8 -8 -9 -9 -10 -11 -11 -11 -11 -12 -12 -11 -11 -12 -12 -12 -12 -11 -11 -12 -12 -12 -12 -12 -12 -13 -12 -12 -13 -13 -13 -13 -14
-14 -13 -12 -11 -10 -9 -10 -8 -7 -8 -8 -10 -10 -9 -9 -8 -9 -9 -9 -9 -10 -10 -11 -11 -12 -12 -11 -11 -11 -12 -12 -12 -11 -12 -12 -12 -12 -12 -12 -12 -12 -12 -12 -12 -12 -13 -13 -13 -13
-15 -13 -13 -12 -12 -11 -9 -8 -8 -8 -9 -10 -11 -9 -9 -9 -8 -8 -9 -10 -10 -11 -11 -12 -11 -11 -11 -11 -12 -12 -11 -11 -11 -12 -12 -12 -12 -11 -12 -11 -12 -12 -12 -12 -12 -13 -12 -12 -13
-16 -16 -16 -14 -13 -11 -9 -8 -7 -8 -9 -10 -11 -10 -9 -9 -8 -9 -10 -10 -11 -11 -11 -11 -11 -11 -11 -11 -12 -11 -11 -11 -12 -12 -12 -12 -11 -12 -12 -12 -12 -12 -12 -12 -12 -13 -13 -13 -13
-17 -17 -17 -17 -14 -12 -9 -8 -8 -10 -10 -11 -11 -10 -10 -9 -9 -10 -10 -10 -11 -11 -11 -11 -11 -11 -11 -11 -11 -11 -11 -11 -12 -12 -12 -12 -12 -12 -11 -12 -12 -12 -12 -12 -13 -12 -13 -13 -13
-20 -18 -18 -17 -13 -11 -9 -8 -8 -10 -11 -11 -11 -10 -10 -10 -10 -10 -10 -10 -11 -11 -11 -11 -11 -11 -11 -11 -11 -11 -11 -11 -11 -11 -11 -11 -12 -12 -12 -11 -12 -12 -12 -12 -13 -13 -12 -13 -12
Height
5892 5894 5896 5898 5903 5901 5900 5897 5898 5899 5899 5901 5900 5899 5902 5903 5903 5906 5901 5898 5897 5896 5894 5890 5888 5886 5885 5883 5879 5876 5872 5869 5866 5864 5862 5860 5858 5856 5854 5852 5849 5846 5843 5841 5839 5838 5836 5836 5835
5889 5891 5893 5896 5898 5899 5896 5896 5897 5899 5897 5894 5895 5893 5893 5897 5899 5901 5898 5895 5895 5892 5889 5886 5885 5883 5881 5879 5877 5874 5868 5864 5861 5859 5857 5856 5855 5853 5851 5848 5845 5841 5838 5836 5834 5831 5829 5829 5829
5886 5888 5889 5891 5894 5896 5894 5894 5895 5895 5894 5895 5893 5886 5885 5893 5895 5897 5892 5893 5893 5889 5887 5884 5883 5882 5878 5875 5872 5869 5865 5860 5858 5855 5853 5851 5850 5848 5846 5843 5840 5836 5833 5829 5827 5825 5823 5822 5822
5882 5883 5885 5888 5891 5891 5893 5893 5890 5890 5889 5889 5889 5887 5882 5885 5891 5892 5887 5886 5888 5885 5883 5882 5880 5878 5875 5871 5868 5865 5862 5858 5855 5852 5849 5847 5844 5842 5839 5836 5833 5830 5828 5825 5822 5820 5818 5817 5816
5876 5877 5878 5883 5887 5888 5888 5886 5883 5884 5883 5884 5878 5880 5878 5878 5880 5880 5881 5880 5881 5880 5880 5878 5878 5877 5874 5868 5865 5861 5857 5854 5852 5848 5846 5842 5840 5836 5832 5829 5827 5824 5822 5821 5817 5815 5813 5811 5810
5869 5870 5874 5879 5881 5883 5883 5880 5879 5881 5878 5874 5878 5877 5878 5876 5876 5875 5873 5876 5878 5879 5878 5878 5877 5874 5870 5864 5861 5858 5854 5851 5848 5845 5842 5839 5835 5831 5828 5824 5820 5819 5816 5814 5812 5810 5808 5806 5805
5861 5862 5867 5871 5876 5877 5880 5872 5874 5874 5875 5870 5870 5870 5871 5873 5871 5871 5867 5870 5869 5869 5873 5874 5870 5866 5867 5861 5857 5853 5850 5846 5843 5839 5836 5834 5830 5827 5824 5820 5816 5813 5811 5809 5807 5804 5802 5801 5799
5852 5851 5856 5861 5868 5873 5863 5865 5869 5869 5868 5868 5867 5868 5867 5867 5867 5864 5861 5863 5867 5865 5867 5866 5865 5859 5855 5859 5854 5849 5847 5843 5839 5835 5832 5829 5826 5823 5820 5816 5812 5809 5806 5803 5801 5798 5796 5794 5793
5843 5839 5849 5855 5860 5865 5854 5857 5865 5865 5866 5866 5864 5865 5863 5865 5863 5862 5858 5855 5854 5853 5858 5853 5854 5853 5848 5854 5851 5847 5843 5838 5834 5831 5828 5825 5822 5818 5815 5812 5808 5805 5801 5799 5796 5793 5790 5788 5787
5832 5832 5840 5852 5853 5855 5855 5849 5859 5858 5861 5861 5864 5858 5861 5857 5856 5855 5854 5854 5850 5845 5850 5845 5842 5843 5843 5845 5843 5839 5838 5835 5829 5825 5823 5820 5817 5813 5810 5807 5803 5801 5797 5793 5791 5788 5785 5782 5780
5824 5823 5834 5842 5844 5845 5847 5844 5848 5852 5853 5855 5854 5857 5858 5857 5855 5851 5849 5848 5848 5847 5847 5840 5839 5839 5838 5837 5837 5835 5832 5828 5823 5820 5817 5815 5812 5808 5804 5802 5798 5796 5791 5788 5786 5783 5780 5776 5774
5815 5819 5821 5831 5834 5834 5837 5842 5837 5840 5847 5848 5849 5851 5852 5851 5854 5852 5848 5846 5847 5845 5843 5839 5838 5836 5832 5830 5830 5827 5826 5822 5817 5813 5811 5808 5806 5802 5799 5796 5792 5790 5786 5782 5780 5777 5774 5771 5767
5803 5811 5810 5814 5821 5825 5827 5825 5832 5832 5836 5843 5842 5843 5843 5846 5845 5844 5842 5840 5839 5836 5834 5831 5828 5832 5827 5824 5821 5819 5818 5816 5811 5807 5805 5802 5799 5796 5793 5790 5786 5783 5779 5775 5772 5770 5767 5764 5762
5796 5794 5801 5803 5808 5813 5814 5817 5820 5826 5832 5833 5832 5833 5836 5836 5835 5835 5834 5834 5832 5828 5825 5821 5820 5823 5821 5817 5813 5811 5809 5807 5804 5801 5798 5796 5793 5789 5787 5783 5780 5776 5772 5768 5764 5762 5761 5758 5756
5780 5780 5785 5793 5798 5801 5807 5803 5808 5824 5825 5823 5824 5825 5826 5827 5828 5828 5826 5824 5822 5819 5817 5813 5812 5814 5811 5809 5807 5803 5802 5800 5798 5795 5792 5790 5787 5784 5781 5776 5772 5767 5764 5760 5757 5754 5752 5750 5748
5766 5768 5773 5786 5790 5794 5797 5789 5809 5813 5812 5813 5816 5816 5816 5818 5818 5818 5816 5814 5812 5810 5807 5806 5804 5803 5802 5801 5799 5796 5796 5794 5792 5789 5786 5784 5782 5779 5774 5769 5766 5761 5757 5753 5748 5744 5740 5739 5738
5752 5758 5763 5776 5782 5780 5783 5779 5796 5801 5803 5802 5802 5803 5805 5808 5809 5808 5807 5805 5804 5802 5799 5798 5796 5794 5794 5793 5791 5790 5789 5787 5785 5782 5780 5778 5776 5772 5768 5763 5759 5752 5748 5743 5740 5736 5733 5731 5729
5747 5754 5757 5760 5768 5769 5772 5768 5781 5787 5788 5787 5791 5795 5797 5798 5799 5799 5797 5797 5796 5792 5793 5791 5789 5788 5787 5786 5784 5783 5782 5779 5777 5776 5773 5770 5768 5765 5759 5753 5748 5745 5740 5735 5731 5727 5723 5721 5720
5733 5734 5742 5749 5753 5759 5760 5762 5768 5775 5776 5777 5783 5787 5789 5790 5790 5791 5790 5788 5785 5785 5785 5782 5780 5780 5780 5778 5775 5775 5774 5771 5770 5769 5765 5762 5757 5751 5748 5744 5740 5737 5732 5726 5723 5719 5716 5713 5712
5720 5725 5736 5741 5744 5748 5751 5748 5757 5763 5766 5766 5776 5779 5782 5779 5782 5782 5779 5778 5777 5777 5775 5774 5772 5772 5772 5770 5769 5767 5766 5764 5762 5759 5756 5753 5749 5746 5742 5738 5734 5730 5726 5720 5716 5712 5709 5707 5705
5709 5714 5726 5727 5731 5738 5734 5737 5744 5756 5760 5765 5766 5771 5770 5771 5774 5774 5772 5770 5769 5768 5766 5765 5762 5763 5763 5763 5762 5762 5761 5759 5756 5753 5750 5747 5744 5740 5736 5731 5728 5723 5717 5714 5711 5706 5702 5699 5698
5696 5704 5711 5714 5720 5724 5730 5724 5734 5751 5753 5755 5759 5762 5761 5765 5765 5765 5764 5762 5762 5761 5760 5757 5754 5754 5755 5757 5757 5757 5756 5754 5752 5748 5745 5741 5738 5734 5731 5727 5722 5717 5713 5709 5705 5702 5698 5695 5693
5690 5688 5695 5702 5707 5711 5719 5717 5734 5740 5742 5749 5754 5751 5755 5758 5758 5758 5758 5757 5754 5754 5752 5750 5748 5748 5750 5752 5752 5752 5750 5748 5745 5742 5739 5736 5734 5730 5726 5722 5718 5713 5709 5706 5702 5700 5696 5693 5692
5673 5675 5682 5690 5694 5695 5716 5716 5723 5731 5739 5743 5745 5745 5747 5751 5750 5750 5750 5748 5748 5746 5744 5743 5743 5744 5746 5747 5747 5745 5743 5742 5740 5737 5735 5732 5728 5724 5721 5716 5712 5709 5708 5704 5701 5698 5695 5693 5691
5656 5661 5668 5676 5677 5696 5707 5707 5719 5727 5733 5734 5734 5738 5743 5743 5743 5743 5743 5741 5740 5739 5738 5739 5740 5741 5743 5743 5741 5739 5738 5736 5734 5732 5728 5725 5723 5720 5717 5713 5711 5709 5706 5704 5701 5697 5694 5692 5691
5640 5648 5658 5667 5674 5688 5694 5701 5710 5721 5726 5724 5728 5734 5737 5737 5737 5737 5735 5734 5733 5732 5734 5735 5737 5739 5738 5738 5736 5734 5732 5730 5729 5726 5724 5721 5718 5716 5713 5711 5710 5707 5706 5703 5700 5697 5694 5691 5690
5630 5634 5649 5652 5663 5672 5684 5694 5702 5714 5721 5719 5724 5729 5732 5732 5732 5730 5730 5728 5728 5729 5730 5732 5735 5735 5734 5733 5731 5729 5727 5726 5724 5721 5719 5716 5714 5712 5710 5709 5708 5707 5705 5702 5699 5696 5694 5691 5691
5621 5628 5636 5642 5653 5661 5675 5684 5692 5709 5714 5714 5718 5723 5726 5727 5726 5726 5726 5726 5726 5727 5729 5731 5731 5730 5730 5729 5727 5725 5723 5722 5720 5717 5715 5712 5710 5708 5707 5708 5708 5706 5705 5702 5699 5695 5693 5692 5691
5610 5619 5627 5631 5638 5653 5669 5676 5688 5706 5706 5708 5711 5718 5721 5722 5722 5723 5724 5724 5724 5726 5726 5727 5727 5727 5726 5725 5723 5722 5720 5718 5715 5713 5711 5709 5707 5706 5706 5707 5707 5706 5704 5702 5699 5695 5694 5692 5690
5597 5607 5612 5618 5634 5647 5659 5670 5686 5698 5699 5701 5707 5712 5716 5717 5718 5719 5721 5721 5721 5722 5723 5724 5724 5723 5722 5721 5720 5718 5716 5714 5712 5711 5708 5706 5705 5705 5705 5706 5706 5705 5703 5701 5698 5697 5694 5692 5690
Wind_Speed
21 20 20 20 18 17 16 20 16 15 16 19 22 27 27 28 30 26 25 23 28 27 31 32 29 36 34 30 25 28 26 18 16 16 15 16 17 18 19 20 21 23 24 26 26 26 26 27 27
23 23 21 21 21 18 20 19 16 17 22 24 26 27 38 27 33 27 26 25 22 29 28 30 33 37 38 33 29 28 27 17 14 14 15 16 17 17 20 21 22 25 26 26 26 26 26 27 30
28 28 27 26 21 20 22 19 17 22 30 28 33 31 36 26 26 26 26 21 24 30 28 36 36 35 40 36 32 30 28 19 17 16 16 17 18 20 22 23 25 24 24 25 26 26 26 27 28
29 29 29 27 23 22 21 20 21 24 22 30 37 38 35 33 26 25 22 26 31 31 32 38 42 37 38 35 33 29 28 21 19 19 19 19 21 22 24 23 20 22 23 23 21 23 25 26 25
34 34 33 27 24 25 19 20 27 31 35 30 27 39 26 22 21 25 28 29 31 35 35 38 40 35 35 38 33 31 30 23 20 21 22 22 24 23 25 23 23 25 25 25 24 21 21 22 22
38 37 35 28 25 27 22 33 36 26 22 24 18 19 15 23 25 30 34 30 35 32 34 36 33 37 37 38 33 33 32 30 22 23 24 25 25 26 26 25 27 28 28 27 24 21 21 20 20
38 40 37 36 32 34 24 35 34 32 19 24 25 25 31 26 28 34 36 36 39 34 32 33 38 42 37 38 39 35 32 34 28 29 28 27 27 28 28 27 27 27 29 27 28 26 24 21 22
43 48 46 44 38 38 33 40 32 33 17 19 31 26 26 28 33 39 44 41 31 37 36 41 42 49 51 38 40 39 32 33 33 33 30 30 30 30 28 28 26 30 31 28 30 30 26 24 25
47 56 52 48 44 40 35 40 33 36 35 34 41 30 28 30 37 39 40 43 40 44 46 50 50 51 54 43 38 36 36 34 38 35 32 31 31 31 29 28 28 31 32 30 29 30 28 27 27
54 59 53 44 44 43 35 47 31 36 39 43 29 33 27 30 35 37 39 40 38 49 52 55 54 59 58 42 37 36 38 35 38 35 32 31 30 30 29 29 31 32 32 33 30 29 30 29 29
60 64 54 49 45 44 41 41 41 39 40 40 44 37 34 33 36 42 40 40 39 50 53 56 56 60 46 37 34 32 36 37 37 35 33 32 29 30 30 30 34 38 35 35 35 29 28 30 30
61 62 60 50 51 49 52 53 52 42 36 36 39 41 34 36 37 42 43 45 47 52 55 64 59 52 40 35 34 32 36 39 39 37 33 31 29 28 32 31 37 38 39 38 36 31 30 29 29
66 55 61 57 56 54 50 54 46 45 42 34 38 42 43 42 45 48 50 50 51 57 63 57 53 42 34 37 35 34 38 39 39 35 32 30 28 28 32 35 39 38 42 40 37 33 32 29 26
66 66 62 62 60 55 52 50 45 41 38 40 42 43 44 44 44 47 54 53 55 60 54 54 52 38 37 38 35 37 40 41 37 32 30 28 26 29 33 37 39 42 44 42 40 36 33 31 29
73 76 74 63 60 55 50 55 50 39 40 44 45 45 45 47 51 51 44 49 53 52 48 47 45 36 35 36 34 39 39 41 34 30 30 27 26 29 34 39 42 44 44 44 42 39 36 34 31
65 68 69 55 58 59 55 54 45 43 46 47 44 44 48 44 38 34 37 42 44 44 39 38 41 40 35 35 34 38 40 37 31 30 29 25 25 29 37 41 43 45 46 44 42 40 39 34 33
62 61 61 56 60 63 63 50 48 49 48 49 48 44 39 36 30 30 32 35 36 31 35 37 40 43 44 36 37 39 38 32 31 30 26 25 26 32 39 42 44 44 44 43 43 41 39 36 34
58 56 55 54 50 49 54 52 47 41 39 41 42 32 29 28 29 29 32 30 31 33 35 36 39 44 49 39 41 37 35 31 32 28 26 27 31 35 40 42 42 42 42 43 41 40 36 34 33
59 60 56 51 49 47 44 46 45 38 39 39 33 29 28 28 29 29 26 25 28 28 32 38 41 37 30 30 36 34 32 31 31 27 26 30 34 40 39 39 39 40 40 40 37 32 27 25 24
60 59 53 51 51 48 45 45 41 38 39 37 27 30 27 31 25 25 23 26 27 28 35 40 43 36 29 29 28 32 30 30 27 27 29 33 36 36 36 37 37 37 35 35 32 31 29 26 24
62 60 54 54 52 47 51 48 43 38 36 30 30 29 29 29 25 20 23 26 29 33 37 41 43 34 29 25 27 29 28 24 26 30 33 34 32 32 34 33 33 33 30 26 25 23 22 21 20
64 61 58 56 54 51 48 51 47 32 33 33 29 28 32 26 18 20 24 27 30 35 35 32 25 25 22 23 25 25 23 24 27 32 32 29 30 29 28 30 27 25 21 18 16 17 16 13 12
60 63 61 59 58 57 52 53 30 34 33 28 24 32 26 18 21 23 27 27 31 30 23 24 21 18 18 22 25 22 21 25 28 29 28 27 25 24 26 23 18 14 14 14 13 13 13 10 8
61 64 64 62 60 62 46 48 20 29 24 20 25 26 21 18 23 27 29 27 29 20 19 22 19 17 20 22 20 19 22 26 26 26 26 25 21 24 21 16 13 10 12 12 13 12 10 8 6
62 63 62 63 66 54 47 48 24 18 16 23 28 23 17 19 22 25 23 24 23 19 19 19 16 17 19 18 17 19 22 23 23 23 24 20 21 19 16 10 8 8 8 9 12 13 11 7 6
61 62 63 62 61 57 56 48 36 26 19 24 20 17 14 15 19 21 23 24 22 20 17 15 14 14 16 15 17 20 21 20 20 21 21 19 19 14 10 7 9 5 6 9 14 11 10 9 6
56 64 60 62 60 61 55 48 44 33 29 30 14 15 9 12 14 18 19 12 11 13 12 14 12 13 14 14 18 19 19 19 21 23 18 18 12 11 8 7 9 5 6 11 11 10 6 7 7
55 56 54 59 60 61 56 51 45 30 29 26 17 17 11 12 12 13 12 8 10 13 14 12 11 13 14 15 17 16 18 19 21 18 16 11 10 10 8 5 8 3 4 9 11 10 6 8 5
52 54 55 56 60 61 55 51 42 25 25 23 18 14 9 10 10 10 14 14 14 15 11 10 13 13 14 14 14 16 18 19 19 15 10 9 9 8 7 4 6 1 4 8 12 5 6 6 5
46 54 60 60 60 58 57 49 42 30 31 27 13 16 10 10 10 12 14 15 15 12 12 13 13 13 12 12 14 17 18 16 14 10 8 7 8 6 7 3 3 1 5 9 7 5 6 8 7
Wind_Direction
215 207 200 193 192 190 193 208 214 221 241 258 229 244 244 256 271 277 296 295 294 308 317 330 336 340 340 342 336 334 336 326 316 315 319 320 315 311 309 309 310 312 309 305 299 293 288 282 280
216 210 201 202 196 204 210 222 231 251 249 229 226 253 247 252 248 256 289 290 306 310 318 330 334 337 339 339 337 331 337 328 317 312 316 315 306 300 302 306 310 310 306 303 299 296 290 283 278
219 217 210 208 200 208 215 225 240 252 264 266 256 248 260 260 241 264 294 300 314 321 311 325 332 338 337 336 336 334 339 325 317 312 315 309 304 305 309 312 317 316 309 303 299 296 291 285 273
225 224 221 221 205 214 228 236 256 263 267 266 250 267 255 261 238 277 289 304 319 317 314 321 329 337 333 335 334 334 338 322 313 315 314 308 306 315 320 324 333 332 328 320 306 297 296 293 280
225 227 225 220 218 226 216 221 236 245 262 267 275 244 250 272 289 300 297 305 316 315 312 315 327 327 329 334 334 330 334 326 309 310 311 314 313 320 323 325 329 333 326 322 317 306 302 293 286
228 232 232 225 212 220 230 242 243 256 274 268 258 277 275 286 288 292 294 300 302 301 306 321 326 328 328 331 335 335 331 330 315 312 313 317 319 320 324 326 326 324 325 323 313 305 304 296 286
227 227 227 228 230 229 234 244 248 256 263 281 284 280 278 279 287 286 285 293 296 305 314 316 326 328 328 326 328 330 330 326 323 320 317 315 319 317 322 315 327 325 322 320 316 315 303 294 290
230 232 230 231 235 245 225 239 231 250 264 276 268 269 279 278 281 281 279 288 299 298 310 317 322 318 322 326 325 322 326 322 317 320 314 313 315 313 319 314 321 327 322 316 315 311 302 294 289
235 239 236 240 242 250 239 245 238 247 234 245 253 254 265 267 268 277 282 291 297 301 318 317 318 315 315 323 319 316 318 319 315 314 309 308 308 313 318 312 320 329 326 316 318 310 300 297 292
237 241 242 247 249 249 235 250 238 235 247 245 244 243 259 266 274 274 281 291 299 308 314 311 312 315 311 316 316 317 312 314 308 307 304 302 302 311 316 317 318 320 320 318 319 312 304 296 296
236 244 247 242 247 250 252 261 258 254 247 241 246 255 262 255 265 272 275 282 289 301 305 302 302 307 311 312 312 308 308 310 306 302 297 295 298 309 316 313 314 314 316 317 317 313 305 302 297
255 246 248 253 252 257 259 262 255 258 255 256 255 262 252 263 266 265 273 285 286 294 292 294 298 302 308 304 307 303 307 307 302 295 293 291 295 305 311 307 308 306 313 314 313 310 305 305 297
261 255 254 258 255 258 259 253 254 252 259 264 268 261 261 264 267 272 278 283 290 291 292 292 290 298 297 298 305 300 302 304 296 291 290 288 292 300 304 305 303 309 308 311 310 309 307 305 296
257 258 256 256 257 261 258 254 251 251 259 265 270 269 263 266 269 279 281 283 280 283 282 283 285 291 290 293 297 294 297 302 292 289 288 288 292 300 302 300 299 302 303 309 310 308 304 299 292
252 254 257 252 256 260 255 258 259 270 265 267 268 268 269 270 275 276 273 271 274 275 279 283 289 287 285 285 288 287 294 294 287 285 288 288 296 297 293 294 298 302 305 306 307 306 302 296 291
252 253 254 254 259 261 252 256 265 268 266 269 268 264 264 266 268 264 264 266 270 275 282 288 292 298 294 284 278 282 288 284 283 285 287 293 295 290 290 292 293 298 301 305 308 306 303 297 290
248 250 254 256 257 260 256 260 265 262 264 267 264 264 267 270 262 266 268 270 279 280 284 292 293 292 294 283 278 279 282 277 279 288 291 294 293 293 290 289 291 300 303 307 305 304 300 295 287
251 256 254 255 254 255 258 262 265 259 260 257 260 262 263 267 269 267 266 276 270 271 283 288 288 284 282 279 275 277 275 275 281 289 295 303 296 293 294 295 299 303 305 304 305 303 300 296 286
246 246 248 250 254 254 258 257 255 256 252 252 254 259 261 261 262 267 275 276 274 280 281 284 285 283 286 285 275 277 272 277 288 294 298 304 305 303 299 301 302 305 305 304 304 303 301 297 290
242 246 245 249 252 254 257 258 250 245 245 254 259 253 256 257 264 275 277 274 276 280 280 278 280 278 276 274 272 270 275 284 294 301 307 307 302 298 299 302 306 304 303 303 303 300 297 291 282
241 243 243 247 249 249 254 252 248 241 247 256 259 257 256 259 271 275 273 276 276 281 290 290 289 282 266 267 263 268 277 290 300 305 305 300 298 300 305 306 306 306 309 306 305 305 304 294 279
237 241 241 243 246 247 247 250 249 242 244 243 250 253 256 269 272 271 277 282 289 283 285 287 281 266 260 261 260 268 282 295 301 302 297 297 301 304 306 308 311 309 310 316 316 321 321 318 290
235 237 238 240 242 245 245 252 237 241 239 242 248 255 269 264 263 264 270 281 288 289 277 270 268 265 260 255 262 277 291 299 301 297 296 299 300 305 308 314 309 324 334 332 332 325 321 319 312
232 235 235 236 239 240 239 250 232 236 239 234 238 252 258 259 258 266 278 287 288 275 259 268 262 253 252 263 274 287 298 299 296 293 296 297 305 313 312 320 328 333 338 333 328 318 313 316 342
228 231 233 234 235 238 236 241 238 224 222 234 241 253 262 258 269 277 282 280 276 257 257 258 247 245 263 270 285 294 295 294 298 300 300 302 309 311 319 325 321 339 340 347 335 332 325 329 316
223 227 231 234 236 236 236 236 232 222 231 244 246 247 258 267 268 269 268 270 269 247 247 235 241 254 265 281 294 294 294 301 302 302 306 305 309 311 311 327 321 334 347 353 336 341 348 322 342
218 223 226 229 230 233 232 230 231 229 223 246 234 244 251 257 260 267 283 278 240 226 220 235 244 258 278 294 294 292 298 300 304 309 311 307 310 310 300 334 317 324 357 356 344 342 336 350 346
216 220 219 226 226 229 228 228 228 220 223 234 227 246 239 256 269 275 269 255 223 219 231 232 252 271 289 292 288 297 300 300 307 314 313 308 319 314 304 314 302 320 353 348 345 326 347 344 308
219 214 218 219 224 224 226 226 224 202 215 214 206 216 214 252 247 263 270 250 232 238 237 245 263 278 286 284 291 297 297 302 307 313 309 311 320 311 284 276 289 285 320 328 348 5 359 352 360
218 212 214 215 220 221 222 217 221 211 211 220 218 195 191 225 254 263 270 251 243 246 233 253 264 278 282 288 294 293 302 305 303 309 314 324 323 297 258 260 277 292 309 335 1 15 30 16 351